Home   Weather   Bonn   Past weeks
Flag for Germany

Past Weather in Bonn, North Rhine-Westphalia, Germany — Yesterday and Last 2 Weeks

Now
37 °F

Passing clouds.


Feels Like: 35 °F
Forecast: 65 / 39 °F
Wind: 3 mph from East

Location: Koeln / Bonn

Current Time: Apr 4, 2020 at 9:44:00 am

Latest Report: Apr 4, 2020 at 8:50 am


Visibility: N/A

Pressure: 30.27 "Hg

Humidity: 75%

Dew Point: 30 °F

Location of BonnLocation

Past Weather in Bonn — Graph

°F

Bonn Temperature Yesterday

Maximum temperature yesterday: 54 °F (at 2:20 pm)
Minimum temperature yesterday: 39 °F (at 11:20 pm)
Average temperature yesterday: 47 °F

High & Low Weather Summary for the Past Weeks

 TemperatureHumidityPressure
High63 °F (Mar 27, 2:50 pm)100% (Mar 31, 12:50 am)30.54 "Hg (Mar 31, 12:50 am)
Low25 °F (Apr 1, 5:20 am)14% (Mar 25, 4:50 pm)29.86 "Hg (Apr 2, 6:20 pm)
Average43 °F53%30.25 "Hg
* Reported Mar 20 7:20 am — Apr 4 8:20 am, Bonn. Weather by CustomWeather, © 2020

Note: Actual official high and low records may vary slightly from our data, if they occured in-between our weather recording intervals... More about our weather records

Bonn Weather History for the Previous 24 Hours

Scroll right to see more
 ConditionsComfort  
Time TempWeatherWind HumidityBarometerVisibility
8:20 am
Sat, Apr 4
34 °FSunny.1 mph81%30.27 "Hg10 mi
7:50 am28 °FSunny.1 mph93%30.24 "Hg10 mi
7:20 am28 °FSunny.1 mph93%30.24 "Hg10 mi
6:50 am28 °FClear.1 mph93%30.21 "Hg10 mi
6:20 am28 °FPassing clouds.3 mph93%30.21 "HgN/A
5:50 am28 °FClear.3 mph93%30.21 "Hg10 mi
5:20 am28 °FClear.2 mph93%30.21 "Hg10 mi
4:50 am30 °FClear.2 mph86%30.21 "Hg10 mi
4:20 am32 °FClear.2 mph87%30.21 "Hg10 mi
3:50 am30 °FClear.1 mph93%30.18 "Hg10 mi
3:20 am32 °FClear.2 mph80%30.18 "Hg10 mi
2:50 am34 °FClear.2 mph87%30.18 "Hg10 mi
2:20 am34 °FClear.1 mph87%30.18 "Hg10 mi
1:50 am34 °FClear.No wind87%30.18 "Hg10 mi
1:20 am37 °FClear.No wind75%30.18 "Hg10 mi
12:50 am37 °FClear.No wind75%30.18 "Hg10 mi
12:20 am37 °FClear.1 mph75%30.15 "Hg10 mi
11:50 pm
Fri, Apr 3
39 °FPassing clouds.3 mph70%30.15 "HgN/A
11:20 pm39 °FClear.5 mph70%30.15 "Hg10 mi
10:50 pm41 °FClear.5 mph61%30.12 "Hg10 mi
10:20 pm41 °FClear.7 mph61%30.12 "Hg10 mi
9:50 pm41 °FClear.8 mph57%30.12 "Hg10 mi
9:20 pm46 °FClear.9 mph50%30.09 "Hg10 mi
8:50 pm48 °FClear.12 mph50%30.09 "Hg10 mi
8:20 pm48 °FClear.9 mph50%30.09 "Hg10 mi
7:50 pm48 °FSunny.13 mph50%30.07 "Hg10 mi
7:20 pm48 °FSunny.14 mph50%30.07 "Hg10 mi
6:50 pm50 °FPassing clouds.14 mph50%30.07 "HgN/A
6:20 pm50 °FSunny.15 mph47%30.07 "Hg10 mi
5:50 pm52 °FPassing clouds.16 mph47%30.04 "HgN/A
5:20 pm50 °FPassing clouds.16 mph50%30.04 "HgN/A
4:50 pm52 °FSunny.16 mph50%30.04 "Hg10 mi
4:20 pm52 °FSunny.14 mph54%30.04 "Hg10 mi
3:50 pm52 °FSunny.12 mph54%30.04 "Hg10 mi
3:20 pm50 °FPassing clouds.14 mph58%30.04 "HgN/A
2:50 pm52 °FPassing clouds.15 mph50%30.01 "HgN/A
2:20 pm54 °FPassing clouds.13 mph51%30.01 "HgN/A
1:50 pm50 °FScattered clouds.10 mph58%30.01 "HgN/A
1:20 pm52 °FPassing clouds.14 mph50%30.01 "HgN/A
12:50 pm52 °FPartly sunny.15 mph54%30.01 "HgN/A
12:20 pm50 °FScattered clouds.13 mph62%30.01 "HgN/A
11:50 am50 °FScattered clouds.14 mph62%30.01 "HgN/A
11:20 am50 °FScattered clouds.15 mph62%29.98 "HgN/A
10:50 am50 °FScattered clouds.10 mph67%29.98 "HgN/A
10:20 am48 °FScattered clouds.12 mph71%29.98 "HgN/A
9:20 am46 °FPartly sunny.10 mph76%29.95 "HgN/A
Weather by CustomWeather, © 2020

See weather overview

Advertising